DW9313 Weather Reports


time (UTC)temp
F
wind
direction
speed
knots
gust
knots
rain 1hr
in
rain 24hr
in
rain mn
in
humidity
%
barometer
mb
20260905110250 66 296 1.7 5.2 0.00 0.00 0.00 65 1023.4
20260905105750 66 303 2.6 6.1 0.00 0.00 0.00 65 1023.4
20260905105250 66 221 0.9 5.2 0.00 0.00 0.00 67 1023.4
20260905104751 65 179 0.9 6.1 0.00 0.00 0.00 68 1023.4
20260905104251 65 307 0.9 5.2 0.00 0.00 0.00 68 1023.4
20260905103751 64 205 0.9 5.2 0.00 0.00 0.00 69 1023.5
20260905103251 63 301 0.9 4.3 0.00 0.00 0.00 68 1023.5
20260905102751 63 285 1.7 4.3 0.00 0.00 0.00 68 1023.5
20260905102251 63 270 1.7 2.6 0.00 0.00 0.00 69 1023.5
20260905101751 63 301 0.9 1.7 0.00 0.00 0.00 69 1023.4
20260905101253 63 283 0.9 2.6 0.00 0.00 0.00 67 1023.4
20260905100251 64 280 0.9 5.2 0.00 0.00 0.00 70 1023.4
20260905095752 63 299 0.9 1.7 0.00 0.00 0.00 71 1023.3
20260905094251 63 294 0.9 2.6 0.00 0.00 0.00 66 1023.2
20260905093251 63 219 0.9 2.6 0.00 0.00 0.00 68 1023.2
20260905092752 62 182 0.0 0.9 0.00 0.00 0.00 72 1023.2
20260905092253 62 285 0.9 4.3 0.00 0.00 0.00 69 1023.2
20260905091751 62 261 0.0 1.7 0.00 0.00 0.00 74 1023.2
20260905091251 61 318 0.9 1.7 0.00 0.00 0.00 76 1023.2
20260905090751 61 281 0.0 0.9 0.00 0.00 0.00 77 1023.2
20260905090251 60 262 0.0 1.7 0.00 0.00 0.00 77 1023.2
20260905085253 60 292 0.0 0.9 0.00 0.00 0.00 77 1023.1
20260905083753 60 304 0.0 0.0 0.00 0.00 0.00 77 1023.0
20260905083252 60 136 0.0 0.0 0.00 0.00 0.00 77 1023.0
20260905082753 60 217 0.0 0.0 0.00 0.00 0.00 77 1023.1
20260905082253 59 291 0.0 0.0 0.00 0.00 0.00 77 1023.1
20260905081751 59 307 0.0 0.0 0.00 0.00 0.00 77 1023.0
20260905081253 59 293 0.0 0.0 0.00 0.00 0.00 77 1023.0
20260905080752 59 286 0.0 1.7 0.00 0.00 0.00 78 1022.9
20260905075752 58 283 0.0 0.9 0.00 0.00 0.00 79 1022.7
20260905075253 58 271 0.0 0.9 0.00 0.00 0.00 80 1022.7
20260905074752 58 281 0.9 4.3 0.00 0.00 0.00 80 1022.7
20260905073754 57 270 0.0 1.7 0.00 0.00 0.00 82 1022.7
20260905073252 57 269 0.0 2.6 0.00 0.00 0.00 83 1022.6
20260905072753 57 292 0.0 0.9 0.00 0.00 0.00 83 1022.5
20260905071752 57 275 0.0 0.9 0.00 0.00 0.00 84 1022.5
20260905070752 56 295 0.0 0.0 0.00 0.00 0.00 84 1022.5
20260905070254 56 295 0.0 0.0 0.00 0.00 0.00 85 1022.5
20260905065253 56 277 0.0 0.9 0.00 0.00 0.00 85 1022.5
20260905064754 56 273 0.0 0.9 0.00 0.00 0.00 86 1022.4
20260905064253 56 302 0.9 2.6 0.00 0.00 0.00 86 1022.4
20260905063752 56 292 0.0 1.7 0.00 0.00 0.00 86 1022.4
20260905062753 56 295 0.9 4.3 0.00 0.00 0.00 86 1022.3
20260905062253 56 309 0.9 2.6 0.00 0.00 0.00 86 1022.3
20260905061752 56 282 1.7 4.3 0.00 0.00 0.00 86 1022.2
20260905055753 55 282 1.7 5.2 0.00 0.00 0.00 86 1022.1
20260905055254 55 284 0.0 1.7 0.00 0.00 0.00 85 1022.0
20260905054253 55 285 0.0 0.9 0.00 0.00 0.00 86 1022.0
20260905053753 55 279 0.0 2.6 0.00 0.00 0.00 86 1022.0
20260905053255 55 273 0.9 2.6 0.00 0.00 0.00 85 1021.9
20260905052253 55 288 0.9 5.2 0.00 0.00 0.00 85 1021.9
20260905051754 55 288 1.7 2.6 0.00 0.00 0.00 85 1021.9
20260905051253 55 281 1.7 4.3 0.00 0.00 0.00 85 1021.8
20260905050254 55 295 0.0 1.7 0.00 0.00 0.00 85 1021.8
20260905045754 55 301 0.0 2.6 0.00 0.00 0.00 85 1021.7
20260905045254 55 294 0.0 1.7 0.00 0.00 0.00 85 1021.7
20260905044753 55 308 0.0 0.9 0.00 0.00 0.00 84 1021.7
20260905044255 55 304 0.0 0.9 0.00 0.00 0.00 84 1021.6
20260905043753 55 308 0.0 0.0 0.00 0.00 0.00 84 1021.6
20260905043255 55 316 0.0 2.6 0.00 0.00 0.00 84 1021.6
20260905042755 55 280 0.9 1.7 0.00 0.00 0.00 84 1021.6
20260905042254 55 261 0.0 0.9 0.00 0.00 0.00 84 1021.6
20260905041754 55 272 0.0 1.7 0.00 0.00 0.00 84 1021.4
20260905041255 55 287 0.9 2.6 0.00 0.00 0.00 85 1021.4
20260905040755 55 287 0.0 0.9 0.00 0.00 0.00 85 1021.4
20260905035755 55 283 0.0 1.7 0.00 0.00 0.00 84 1021.3
20260905034754 55 285 0.9 2.6 0.00 0.00 0.00 83 1021.4
20260905034254 55 278 0.0 1.7 0.00 0.00 0.00 83 1021.3
20260905033756 55 264 0.0 0.9 0.00 0.00 0.00 82 1021.3
20260905033254 55 294 0.0 0.0 0.00 0.00 0.00 82 1021.2
20260905032755 56 294 0.0 0.9 0.00 0.00 0.00 82 1021.2
20260905032255 56 277 0.0 0.9 0.00 0.00 0.00 82 1021.1
20260905031756 56 287 0.0 0.9 0.00 0.00 0.00 83 1021.2
20260905031255 55 284 0.9 1.7 0.00 0.00 0.00 83 1021.2
20260905030754 55 291 0.9 1.7 0.00 0.00 0.00 84 1021.2
20260905030255 55 302 0.0 0.9 0.00 0.00 0.00 84 1021.1
20260905025754 55 273 0.0 0.9 0.00 0.00 0.00 84 1021.0
20260905025255 55 285 0.0 0.9 0.00 0.00 0.00 84 1021.0
20260905024754 55 267 0.0 0.9 0.00 0.00 0.00 84 1020.9
20260905024254 55 286 0.0 0.9 0.00 0.00 0.00 84 1020.9
20260905023754 55 303 0.0 0.0 0.00 0.00 0.00 84 1020.8
20260905023256 55 298 0.0 0.9 0.00 0.00 0.00 84 1020.9
20260905022754 55 301 0.0 1.7 0.00 0.00 0.00 84 1020.9
20260905022256 55 306 0.9 1.7 0.00 0.00 0.00 85 1020.9
20260905021755 55 295 0.0 1.7 0.00 0.01 0.00 86 1020.9
20260905021255 55 257 0.0 0.9 0.00 0.01 0.00 86 1020.9
20260905020755 55 258 0.0 0.9 0.00 0.01 0.00 86 1020.9
20260905020255 55 168 0.0 0.9 0.00 0.01 0.00 86 1020.8
20260905015756 55 235 0.0 0.9 0.00 0.01 0.00 86 1020.8
20260905015255 55 233 0.0 0.9 0.00 0.01 0.00 86 1020.8
20260905014755 55 290 0.0 1.7 0.00 0.01 0.00 86 1020.8
20260905014255 54 293 0.0 0.9 0.00 0.01 0.00 86 1020.7
20260905013756 54 291 0.0 1.7 0.00 0.01 0.00 86 1020.7
20260905013255 54 272 0.0 0.9 0.00 0.02 0.00 87 1020.7
20260905012755 54 35 0.0 0.9 0.00 0.02 0.00 87 1020.6
20260905012256 53 303 0.0 1.7 0.00 0.02 0.00 87 1020.6
20260905011756 53 290 0.0 1.7 0.00 0.02 0.00 87 1020.5
20260905011256 53 299 0.0 1.7 0.00 0.02 0.00 88 1020.6
20260905010256 52 133 0.0 0.9 0.00 0.02 0.00 87 1020.6
20260905005756 52 132 0.0 0.9 0.00 0.02 0.00 87 1020.6
20260905005256 52 132 0.0 0.0 0.00 0.02 0.00 86 1020.5
20260905004756 52 132 0.0 0.0 0.00 0.02 0.00 85 1020.4
20260905004255 53 132 0.0 0.0 0.00 0.02 0.00 84 1020.4
20260905003757 53 132 0.0 0.0 0.00 0.02 0.00 84 1020.4
20260905003256 53 132 0.0 0.0 0.00 0.02 0.00 83 1020.4
20260905002757 54 132 0.0 0.9 0.00 0.02 0.00 82 1020.4
20260905002255 55 140 0.0 0.9 0.00 0.02 0.00 82 1020.3
20260905001756 55 234 0.0 1.7 0.00 0.02 0.00 81 1020.2
20260905001255 56 285 0.9 4.3 0.00 0.02 0.00 81 1020.2
20260905000756 56 292 2.6 6.1 0.00 0.02 0.00 81 1020.2
20260905000257 56 289 1.7 5.2 0.00 0.02 0.00 80 1020.2
20260904234256 55 285 1.7 5.2 0.00 0.02 0.00 81 1020.2
20260904233757 55 283 1.7 5.2 0.00 0.02 0.00 81 1020.2
20260904233256 55 282 0.9 2.6 0.00 0.02 0.00 81 1020.1
20260904232757 55 293 0.9 2.6 0.00 0.02 0.00 81 1020.0
20260904232258 55 293 0.9 4.3 0.00 0.02 0.00 81 1020.0
20260904231257 55 280 1.7 2.6 0.00 0.02 0.00 81 1019.9
20260904230816 55 303 0.9 1.7 0.00 0.02 0.00 81 1019.9
20260904230257 55 276 0.9 1.7 0.00 0.02 0.00 81 1019.9
20260904225758 55 226 0.0 0.9 0.00 0.02 0.02 81 1019.9
20260904225256 56 273 0.0 4.3 0.00 0.02 0.02 80 1019.8
20260904224758 56 304 0.0 0.0 0.00 0.02 0.02 80 1019.8
20260904224256 56 302 0.0 0.9 0.00 0.02 0.02 80 1019.8
20260904223757 56 282 0.9 2.6 0.00 0.02 0.02 80 1019.8
20260904223258 56 283 0.9 2.6 0.00 0.03 0.02 80 1019.9
20260904222757 56 291 1.7 4.3 0.00 0.03 0.02 81 1019.8
20260904221758 56 302 0.9 4.3 0.00 0.03 0.02 81 1019.8
20260904221256 56 279 0.9 1.7 0.00 0.04 0.02 81 1019.8
20260904220257 57 293 1.7 2.6 0.00 0.05 0.02 80 1019.9
20260904215758 57 282 0.9 1.7 0.00 0.06 0.02 80 1019.8
20260904215257 57 294 0.9 1.7 0.00 0.06 0.02 80 1019.8
20260904213758 57 288 0.9 5.2 0.00 0.09 0.02 80 1019.8
20260904213257 58 282 1.7 5.2 0.00 0.09 0.02 80 1019.8
20260904212257 58 283 2.6 6.1 0.00 0.09 0.02 80 1019.6
20260904211758 58 287 3.5 5.2 0.00 0.10 0.02 80 1019.6
20260904211257 58 289 2.6 5.2 0.00 0.10 0.02 80 1019.7
20260904210757 58 287 0.9 5.2 0.00 0.11 0.02 80 1019.6
20260904210259 58 286 0.9 2.6 0.00 0.12 0.02 80 1019.7
20260904205759 58 286 0.0 1.7 0.00 0.12 0.02 80 1019.6
20260904205257 58 292 0.0 0.9 0.00 0.13 0.02 80 1019.6
20260904204758 58 291 0.0 0.9 0.00 0.14 0.02 79 1019.6
20260904204257 58 289 0.9 2.6 0.00 0.17 0.02 79 1019.6
20260904202759 58 271 0.9 2.6 0.00 0.24 0.02 79 1019.4
20260904202259 58 288 1.7 4.3 0.00 0.26 0.02 79 1019.3
20260904201758 58 281 1.7 2.6 0.00 0.28 0.02 79 1019.3
20260904200759 59 288 0.9 1.7 0.00 0.31 0.02 78 1019.2
20260904200257 59 295 0.0 0.9 0.00 0.32 0.02 78 1019.0
20260904195759 59 202 0.0 0.9 0.00 0.34 0.02 78 1019.0
20260904195257 59 152 0.0 1.7 0.00 0.34 0.02 77 1018.9
20260904194759 59 274 0.0 1.7 0.00 0.35 0.02 77 1018.9
20260904194257 60 293 0.0 2.6 0.00 0.35 0.02 77 1018.8
20260904193759 60 277 0.0 1.7 0.00 0.35 0.02 77 1018.6
20260904193259 60 299 0.0 4.3 0.00 0.35 0.02 76 1018.5
20260904192758 60 284 0.0 1.7 0.00 0.35 0.02 76 1018.4
20260904191758 60 265 0.9 1.7 0.00 0.35 0.02 76 1018.2
20260904191258 61 272 0.9 5.2 0.00 0.35 0.02 76 1018.1
20260904190800 61 282 0.9 2.6 0.00 0.35 0.02 77 1018.0
20260904185758 62 280 0.0 4.3 0.00 0.35 0.02 76 1018.0
20260904185258 62 282 1.7 5.2 0.00 0.35 0.02 76 1018.0
20260904184759 62 282 2.6 5.2 0.00 0.35 0.02 76 1017.9
20260904184259 63 283 1.7 5.2 0.00 0.35 0.02 76 1017.9
20260904183759 63 278 2.6 5.2 0.00 0.35 0.02 75 1017.9
20260904183259 63 273 2.6 5.2 0.00 0.35 0.02 74 1017.7
20260904182759 63 291 3.5 7.0 0.00 0.35 0.02 73 1017.7
20260904182258 64 286 5.2 8.7 0.00 0.35 0.02 72 1017.7
20260904181758 64 288 4.3 7.8 0.00 0.35 0.02 72 1017.5
20260904181258 64 271 4.3 8.7 0.00 0.35 0.02 72 1017.5
20260904180759 64 292 3.5 7.8 0.00 0.35 0.02 72 1017.5
20260904175800 65 292 4.3 8.7 0.00 0.35 0.02 72 1017.4
20260904175259 65 293 5.2 11.3 0.00 0.35 0.02 71 1017.4
20260904174259 65 282 5.2 8.7 0.00 0.35 0.02 71 1017.4
20260904173800 65 292 3.5 7.8 0.00 0.35 0.02 71 1017.3
20260904173300 65 279 4.3 8.7 0.00 0.35 0.02 72 1017.3
20260904172259 66 287 1.7 7.8 0.00 0.35 0.02 73 1017.2
20260904171800 66 276 4.3 6.1 0.00 0.35 0.02 73 1017.2
20260904171259 66 291 5.2 7.8 0.00 0.35 0.02 72 1017.2
20260904170301 65 276 2.6 8.7 0.00 0.35 0.02 74 1017.1
20260904165759 65 291 4.3 8.7 0.00 0.35 0.02 74 1017.0
20260904164807 64 277 4.3 8.7 0.00 0.35 0.02 75 1016.9
20260904164306 64 278 3.5 10.4 0.00 0.35 0.02 75 1016.9
20260904163300 64 295 2.6 6.1 0.00 0.35 0.02 77 1016.7
20260904162805 64 284 5.2 7.8 0.00 0.35 0.02 76 1016.7
20260904162305 64 286 5.2 8.7 0.00 0.35 0.02 75 1016.6
20260904161759 64 287 4.3 7.8 0.00 0.35 0.02 74 1016.5
20260904160800 65 279 5.2 12.2 0.00 0.35 0.02 73 1016.4
20260904160300 65 293 4.3 10.4 0.00 0.35 0.02 73 1016.4
20260904155800 65 290 6.1 11.3 0.00 0.35 0.02 72 1016.3
20260904154300 64 284 5.2 8.7 0.00 0.35 0.02 73 1016.3
20260904153800 64 282 6.1 10.4 0.00 0.35 0.02 73 1016.2
20260904152800 64 288 5.2 11.3 0.00 0.35 0.02 73 1016.3
20260904152300 64 279 6.1 13.0 0.00 0.35 0.02 74 1016.2
20260904151801 65 285 5.2 11.3 0.00 0.35 0.02 75 1016.2
20260904151302 65 263 4.3 6.1 0.00 0.35 0.02 75 1016.2
20260904150800 65 294 4.3 10.4 0.00 0.35 0.02 77 1016.0
20260904145800 64 289 4.3 8.7 0.00 0.35 0.02 77 1016.1
20260904145300 65 273 7.0 11.3 0.00 0.35 0.02 74 1015.9
20260904144801 66 279 5.2 11.3 0.00 0.35 0.02 74 1015.8
20260904144300 65 293 6.1 12.2 0.00 0.35 0.02 75 1015.8
20260904143801 64 286 4.3 7.8 0.00 0.35 0.02 77 1015.8
20260904143300 64 287 1.7 5.2 0.00 0.35 0.02 80 1015.8
20260904142802 63 275 1.7 5.2 0.00 0.35 0.02 79 1015.8
20260904142300 63 284 1.7 7.0 0.00 0.35 0.02 79 1015.7
20260904141301 63 283 5.2 8.7 0.00 0.35 0.02 78 1015.7
20260904140800 63 282 5.2 12.2 0.00 0.35 0.02 77 1015.7
20260904140301 63 288 5.2 7.0 0.00 0.35 0.02 77 1015.6
20260904135801 63 284 2.6 5.2 0.00 0.35 0.02 78 1015.6
20260904134802 63 287 4.3 6.1 0.00 0.35 0.02 77 1015.6
20260904134301 63 293 2.6 6.1 0.00 0.35 0.02 76 1015.6
20260904133801 64 308 0.9 5.2 0.00 0.35 0.02 77 1015.7
20260904133300 63 300 1.7 5.2 0.00 0.35 0.02 76 1015.7
20260904132802 63 291 2.6 8.7 0.00 0.35 0.02 76 1015.7
20260904131801 64 294 3.5 6.1 0.00 0.35 0.02 74 1015.6
20260904131301 64 288 2.6 11.3 0.00 0.35 0.02 74 1015.5
20260904130802 64 280 3.5 11.3 0.00 0.35 0.02 76 1015.5
20260904130300 64 289 5.2 12.2 0.00 0.35 0.02 76 1015.4
20260904125801 63 272 1.7 7.8 0.00 0.35 0.02 77 1015.3
20260904125305 63 295 6.1 11.3 0.00 0.35 0.02 76 1015.2
20260904124803 64 304 5.2 12.2 0.00 0.35 0.02 75 1015.1
20260904124301 64 299 5.2 12.2 0.00 0.35 0.02 75 1015.1
20260904123801 64 277 6.1 13.0 0.00 0.35 0.02 73 1014.9
20260904123302 64 286 3.5 13.0 0.00 0.35 0.02 74 1014.9
20260904122306 64 293 5.2 11.3 0.00 0.35 0.02 73 1014.8
20260904121801 64 278 5.2 12.2 0.00 0.35 0.02 75 1014.8
20260904121301 64 294 3.5 7.8 0.00 0.35 0.02 75 1014.7
20260904120302 65 281 4.3 10.4 0.00 0.35 0.02 72 1014.7
20260904115802 65 299 5.2 11.3 0.00 0.35 0.02 72 1014.6
20260904115306 64 288 3.5 7.8 0.00 0.35 0.02 74 1014.6
20260904114802 64 277 6.1 12.2 0.00 0.35 0.02 74 1014.6
20260904113802 64 296 6.1 13.0 0.00 0.35 0.02 74 1014.4
20260904113303 64 291 6.1 14.8 0.00 0.35 0.02 73 1014.3
20260904112803 64 302 5.2 14.8 0.00 0.35 0.02 74 1014.5
20260904112305 63 270 5.2 11.3 0.00 0.35 0.02 74 1014.6
20260904111803 63 290 6.1 13.9 0.00 0.35 0.02 74 1014.3
20260904110802 63 282 6.1 11.3 0.00 0.35 0.02 75 1014.2